NOTE: This page is experimental. Bug reports to carter.barry@gmail.com. Query language is SQLite3.

Prepend rss. to the URL for an RSS feed, csv. to the URL for CSV output.

QUERY: SELECT station_id AS "Code", observation_time AS "Time (GMT)", ROUND(altim_in_hg,2) AS "Pressure (inches)", ROUND(temp_c*1.8+32, 1) AS "Temp. (F)", ROUND(wind_speed_kt*1.15077945) AS "Wind (mph)", (CASE WHEN wind_gust_kt THEN ROUND(wind_gust_kt*1.15077945) ELSE "NA" END) AS "Gust (mph)", DATETIME(observation_time,'-7 hours') AS "Time (MST)" FROM metar WHERE station_id='KABQ' ORDER BY observation_time DESC

To edit query (or if query above is munged), see textbox at bottom of page

Empty result may indicate error: I'm not sure why my error checking code isn't working.

Source code

Code Time (GMT) Pressure (inches) Temp. (F) Wind (mph) Gust (mph) Time (MST)
KABQ 2019-12-09T07:52:00Z 29.94 46.0 8.0 NA 2019-12-09 00:52:00
KABQ 2019-12-09T06:52:00Z 29.95 46.9 12.0 NA 2019-12-08 23:52:00
KABQ 2019-12-09T05:52:00Z 29.95 46.9 10.0 NA 2019-12-08 22:52:00
KABQ 2019-12-09T04:52:00Z 29.94 46.9 13.0 NA 2019-12-08 21:52:00
KABQ 2019-12-09T03:52:00Z 29.93 48.0 7.0 NA 2019-12-08 20:52:00
KABQ 2019-12-09T02:52:00Z 29.94 45.0 8.0 NA 2019-12-08 19:52:00
KABQ 2019-12-09T01:52:00Z 29.96 46.9 7.0 NA 2019-12-08 18:52:00
KABQ 2019-12-09T00:52:00Z 29.94 48.9 6.0 NA 2019-12-08 17:52:00
KABQ 2019-12-08T23:52:00Z 29.94 48.9 12.0 NA 2019-12-08 16:52:00
KABQ 2019-12-08T22:52:00Z 29.95 50.0 7.0 NA 2019-12-08 15:52:00
KABQ 2019-12-08T21:52:00Z 29.96 48.9 3.0 NA 2019-12-08 14:52:00
KABQ 2019-12-08T20:52:00Z 29.97 48.9 6.0 NA 2019-12-08 13:52:00
KABQ 2019-12-08T19:52:00Z 29.98 50.0 10.0 NA 2019-12-08 12:52:00
KABQ 2019-12-08T18:52:00Z 30.01 48.0 9.0 NA 2019-12-08 11:52:00
KABQ 2019-12-08T17:52:00Z 30.06 46.0 6.0 NA 2019-12-08 10:52:00
KABQ 2019-12-08T16:52:00Z 30.07 44.1 6.0 NA 2019-12-08 09:52:00
KABQ 2019-12-08T15:52:00Z 30.07 43.0 8.0 NA 2019-12-08 08:52:00
KABQ 2019-12-08T14:52:00Z 30.06 43.0 14.0 NA 2019-12-08 07:52:00
KABQ 2019-12-08T13:52:00Z 30.08 43.0 10.0 NA 2019-12-08 06:52:00
KABQ 2019-12-08T12:52:00Z 30.06 43.0 17.0 NA 2019-12-08 05:52:00
KABQ 2019-12-08T11:52:00Z 30.1 42.1 6.0 NA 2019-12-08 04:52:00
KABQ 2019-12-08T10:52:00Z 30.12 41.0 9.0 NA 2019-12-08 03:52:00
KABQ 2019-12-08T09:52:00Z 30.13 43.0 6.0 NA 2019-12-08 02:52:00
KABQ 2019-12-08T08:52:00Z 30.11 44.1 0.0 NA 2019-12-08 01:52:00

Enter query below (must start w/ SELECT):

Schema Raw SQLite3 db RSS feed for this query